Temp
2 2 2 2 2 1 1 1 1 1 1 2 2 2 2 2 2 2 2 2 1 1 1 1 1 1 1 1 1 1 0 0 0 0 0 0 0 0 0 0 0 0 0 0 0 0 1 1 1 1 1 1 1 1 1 1 2 2 2 2 2 2 2 2 2 2 2 2 2 2 2 2 2 2 2 2 2 2 2 2 2 2 2 2 2 2
2 2 2 2 1 1 1 1 1 1 1 1 2 1 1 1 1 1 1 1 1 1 1 1 1 1 0 0 0 0 0 0 0 0 0 0 0 0 0 0 0 0 0 0 0 1 1 1 1 1 1 1 1 1 1 1 1 2 2 2 2 2 2 2 2 2 2 2 2 2 2 2 2 2 2 2 2 2 2 2 2 2 2 2 2 2
1 1 1 1 1 1 1 1 1 1 1 1 1 1 1 1 1 1 1 1 1 1 0 0 0 0 0 0 0 0 -0 -0 -0 0 0 -0 -0 -0 -0 -0 0 0 0 0 0 0 1 1 1 1 1 1 1 1 1 1 1 1 1 1 1 1 1 1 1 2 2 2 1 1 1 1 1 1 1 1 1 1 2 2 2 2 2 2 2 2
1 1 1 1 1 1 1 1 1 1 0 0 0 1 1 1 1 1 0 0 0 0 -0 -0 -0 -0 -0 -0 -0 -0 -0 -0 -0 -0 -0 -0 -0 -0 -0 -0 0 0 0 0 0 0 0 0 0 1 1 1 1 1 1 1 1 1 1 1 1 1 1 1 1 1 1 1 1 1 1 1 1 1 1 1 1 1 1 1 1 1 2 2 2 2
1 0 1 1 1 0 0 0 0 0 0 0 0 0 0 0 0 0 -0 -0 -0 -0 -1 -1 -1 -1 -1 -1 -1 -1 -1 -1 -1 -1 -1 -1 -1 -0 -0 -0 -0 0 0 0 0 0 0 0 0 0 1 1 1 1 1 1 1 1 1 1 1 1 1 1 1 1 1 1 1 1 1 1 1 1 1 1 1 1 1 1 1 1 1 1 1 1
0 0 0 0 0 0 0 0 0 0 0 0 0 0 0 -0 -0 -0 -1 -1 -1 -1 -1 -1 -1 -1 -1 -1 -1 -1 -1 -1 -1 -1 -1 -1 -1 -1 -0 -0 -0 -0 -0 -0 -0 -0 -0 -0 0 0 0 1 1 1 1 1 1 1 1 1 1 1 1 1 1 1 1 1 1 1 1 1 1 1 1 1 1 1 1 1 1 1 1 1 1 1
0 0 0 0 0 0 0 -0 0 0 -0 -0 -0 -0 -0 -0 -1 -1 -1 -1 -1 -1 -1 -1 -1 -1 -1 -1 -1 -1 -1 -1 -1 -1 -1 -1 -1 -1 -1 -0 -0 -0 -0 -0 -0 -0 -0 -0 -0 0 0 0 0 1 1 1 1 1 1 1 1 0 0 0 0 0 0 0 0 0 0 0 0 0 0 0 0 0 1 1 1 1 1 1 1 1
-0 -0 -0 -0 -0 -0 -0 -0 -0 -0 -0 -1 -1 -1 -1 -1 -1 -1 -1 -1 -1 -1 -1 -1 -1 -1 -1 -1 -1 -1 -1 -1 -1 -1 -1 -1 -1 -1 -1 -1 -1 -1 -1 -1 -1 -1 -1 -1 -0 -0 -0 -0 -0 0 0 0 0 0 0 0 0 -0 -0 -0 -0 -0 -0 -0 -0 -0 -0 -0 0 0 0 0 0 0 0 0 0 1 1 1 1 1
-0 -0 -1 -1 -0 -0 -0 -1 -1 -1 -1 -1 -1 -1 -1 -1 -1 -1 -1 -1 -1 -1 -1 -1 -1 -1 -1 -1 -1 -1 -1 -1 -1 -1 -1 -1 -0 -0 -0 -0 -0 -1 -1 -1 -1 -1 -1 -1 -1 -1 -1 -1 -1 -1 -1 -0 -0 -0 -0 -0 -0 -0 -0 -0 -0 -0 -0 -0 -0 -0 -0 -0 -0 -0 0 0 0 0 0 0 0 0 0 1 1 1
-0 -0 -1 -1 -1 -1 -1 -1 -1 -1 -1 -1 -1 -1 -1 -1 -1 -1 -1 -1 -1 -1 -1 -1 -1 -0 -1 -1 -1 -0 -0 -0 -0 -0 -1 -1 -1 -1 -1 -1 -1 -1 -1 -1 -1 -1 -1 -1 -1 -1 -1 -1 -1 -1 -1 -1 -1 -1 -1 -1 -1 -1 -1 -1 -1 -1 -1 -1 -1 -0 -0 -0 -0 -0 -0 0 0 0 0 0 0 0 0 1 1 1
-1 -1 -1 -1 -1 -1 -1 -1 -1 -1 -1 -1 -1 -1 -1 -1 -1 -1 -0 -0 -0 -0 -0 -0 -0 -0 -0 -0 -0 -0 -0 -0 -0 -1 -1 -1 -1 -1 -1 -1 -1 -1 -1 -1 -1 -2 -2 -2 -2 -2 -2 -2 -2 -2 -2 -2 -1 -1 -1 -1 -1 -1 -1 -1 -1 -1 -1 -1 -1 -1 -0 -0 -0 -0 -0 0 0 0 0 0 0 0 0 0 1 1
-1 -1 -1 -1 -1 -1 -1 -1 -1 -0 -0 -0 -0 -1 -1 -1 -1 -1 -0 -0 -0 -0 -0 -0 -0 -0 -0 -0 -0 -0 -0 -1 -1 -1 -1 -1 -1 -1 -1 -1 -1 -1 -1 -1 -1 -2 -2 -2 -2 -2 -2 -2 -2 -2 -2 -2 -1 -1 -1 -1 -1 -1 -1 -1 -1 -1 -1 -1 -1 -1 -0 -0 -0 -0 -0 0 0 0 0 0 0 0 0 0 0 1
-1 -1 -1 -1 -1 -0 -0 -0 -0 -0 -0 -0 -1 -1 -1 -1 -1 -1 -0 -0 -0 -0 -0 -0 -0 -0 -0 -0 -1 -1 -1 -1 -1 -1 -1 -1 -1 -1 -1 -1 -1 -1 -1 -1 -2 -2 -2 -2 -2 -2 -2 -2 -2 -2 -2 -1 -1 -1 -1 -1 -1 -1 -1 -1 -1 -1 -1 -1 -1 -1 -0 -0 -0 -0 -0 -0 0 0 0 0 0 0 0 0 0 0
-1 -0 -0 -0 -0 -1 -1 -0 -0 -1 -1 -1 -1 -1 -1 -1 -1 -1 -0 -0 -1 -1 -1 -0 -1 -1 -1 -1 -1 -1 -1 -1 -1 -1 -1 -1 -1 -1 -1 -2 -2 -2 -2 -2 -2 -2 -2 -2 -2 -2 -2 -2 -2 -2 -2 -1 -1 -1 -1 -1 -1 -1 -1 -1 -1 -1 -1 -1 -1 -1 -0 -0 -0 -0 -0 -0 -0 0 0 0 0 0 0 0 0 0
-0 -0 -0 -1 -1 -1 -1 -1 -1 -1 -1 -1 -1 -1 -1 -1 -1 -1 -1 -1 -1 -1 -1 -1 -1 -1 -1 -1 -1 -1 -1 -1 -2 -2 -2 -2 -2 -2 -2 -2 -2 -2 -2 -2 -2 -2 -2 -2 -2 -2 -2 -2 -2 -2 -2 -2 -2 -1 -1 -1 -1 -1 -1 -1 -1 -1 -1 -1 -1 -1 -1 -0 -0 -0 -0 -0 -0 -0 -0 -0 -0 -0 -0 -0 0 0
-1 -1 -1 -1 -1 -1 -1 -1 -1 -1 -1 -1 -1 -1 -1 -1 -1 -1 -1 -1 -1 -1 -1 -1 -1 -1 -1 -1 -1 -1 -2 -2 -2 -2 -2 -2 -2 -2 -2 -2 -2 -2 -2 -2 -2 -2 -2 -2 -2 -2 -2 -2 -2 -2 -2 -2 -2 -2 -2 -2 -2 -2 -1 -1 -1 -1 -1 -1 -1 -1 -1 -1 -1 -1 -0 -0 -0 -0 -0 -0 -0 -0 -0 -0 -0 -0
-1 -1 -1 -1 -1 -2 -1 -1 -1 -1 -1 -1 -2 -2 -2 -2 -2 -2 -2 -2 -2 -2 -2 -2 -2 -1 -1 -1 -1 -2 -2 -2 -2 -2 -2 -2 -2 -3 -3 -3 -3 -3 -2 -2 -2 -2 -2 -3 -3 -3 -3 -2 -2 -2 -2 -2 -2 -2 -2 -2 -2 -2 -2 -1 -1 -1 -1 -1 -1 -1 -1 -1 -1 -1 -1 -1 -1 -1 -1 -1 -1 -1 -1 -0 -0 -0
-1 -1 -1 -1 -1 -1 -1 -1 -2 -2 -2 -2 -2 -2 -2 -2 -2 -2 -2 -2 -2 -2 -2 -2 -2 -2 -2 -1 -2 -2 -2 -2 -3 -3 -3 -3 -3 -3 -3 -3 -3 -3 -3 -3 -3 -3 -3 -3 -3 -3 -3 -3 -2 -2 -2 -2 -2 -2 -2 -2 -2 -2 -2 -2 -1 -1 -1 -1 -1 -1 -1 -1 -1 -1 -1 -1 -1 -1 -1 -1 -1 -1 -1 -1 -1 -1
-1 -1 -1 -2 -2 -2 -2 -2 -2 -2 -2 -2 -2 -2 -2 -2 -2 -2 -3 -3 -3 -3 -3 -3 -3 -3 -3 -2 -2 -3 -3 -3 -3 -4 -4 -4 -4 -4 -4 -4 -4 -3 -3 -3 -3 -3 -3 -3 -3 -3 -3 -3 -2 -2 -2 -2 -2 -2 -2 -2 -2 -2 -2 -2 -2 -2 -1 -1 -1 -1 -1 -1 -1 -1 -1 -1 -1 -1 -1 -1 -1 -1 -1 -1 -1 -1
-2 -2 -2 -2 -2 -2 -2 -2 -2 -2 -2 -2 -2 -2 -2 -3 -3 -3 -3 -3 -3 -3 -3 -3 -3 -3 -3 -3 -3 -3 -4 -4 -4 -4 -4 -4 -4 -4 -4 -4 -4 -4 -4 -3 -3 -3 -3 -3 -3 -3 -3 -3 -2 -2 -2 -2 -2 -2 -2 -2 -2 -2 -2 -2 -2 -2 -1 -1 -1 -1 -1 -1 -1 -1 -1 -1 -1 -1 -1 -1 -1 -1 -1 -1 -1 -1
-2 -2 -2 -2 -2 -2 -2 -2 -2 -2 -2 -3 -3 -3 -3 -3 -3 -3 -3 -3 -3 -3 -4 -4 -4 -4 -4 -4 -4 -4 -4 -4 -4 -4 -5 -5 -4 -4 -4 -4 -4 -4 -4 -4 -3 -3 -4 -4 -3 -3 -3 -3 -2 -2 -2 -2 -2 -2 -2 -2 -2 -2 -2 -2 -2 -2 -1 -1 -1 -1 -1 -1 -1 -1 -1 -1 -1 -1 -2 -2 -2 -2 -2 -1 -1 -1
-2 -2 -2 -2 -2 -2 -2 -3 -3 -3 -3 -3 -3 -3 -3 -3 -3 -3 -3 -4 -4 -4 -4 -4 -4 -4 -4 -4 -4 -4 -4 -5 -5 -5 -5 -5 -5 -5 -4 -4 -4 -4 -4 -4 -4 -4 -4 -4 -4 -3 -3 -3 -3 -2 -2 -2 -2 -2 -2 -2 -2 -2 -2 -2 -2 -2 -2 -1 -1 -1 -1 -1 -1 -1 -2 -2 -2 -2 -2 -2 -2 -2 -2 -2 -2 -2
-2 -2 -3 -3 -3 -3 -3 -3 -3 -3 -3 -3 -3 -3 -3 -3 -4 -4 -4 -4 -4 -4 -4 -4 -4 -4 -4 -4 -4 -5 -5 -5 -5 -5 -5 -5 -5 -5 -5 -5 -5 -4 -4 -4 -4 -4 -4 -4 -3 -3 -3 -3 -3 -2 -2 -2 -2 -2 -2 -2 -2 -2 -2 -2 -2 -2 -2 -2 -2 -2 -2 -2 -2 -2 -2 -2 -2 -2 -2 -2 -2 -2 -2 -2 -2 -2
-3 -3 -3 -3 -3 -3 -3 -3 -3 -3 -3 -3 -3 -3 -3 -4 -4 -4 -4 -4 -4 -4 -4 -4 -4 -4 -4 -5 -5 -5 -5 -5 -5 -5 -5 -5 -5 -5 -5 -5 -5 -5 -5 -4 -4 -4 -4 -4 -3 -3 -3 -3 -3 -3 -2 -2 -2 -2 -2 -2 -2 -2 -2 -2 -2 -2 -2 -2 -2 -2 -2 -2 -2 -2 -2 -2 -2 -2 -2 -2 -2 -2 -2 -2 -2 -2
-3 -3 -3 -3 -3 -3 -3 -3 -3 -3 -3 -3 -3 -3 -3 -4 -4 -4 -4 -4 -4 -4 -4 -4 -4 -4 -4 -5 -5 -5 -5 -5 -5 -5 -5 -5 -5 -5 -5 -5 -5 -5 -5 -5 -5 -5 -4 -4 -3 -3 -3 -3 -3 -3 -3 -3 -3 -3 -3 -3 -2 -2 -2 -2 -2 -2 -2 -2 -2 -2 -2 -2 -2 -2 -2 -2 -2 -2 -2 -2 -2 -2 -2 -2 -2 -2
-4 -4 -4 -4 -4 -4 -4 -3 -3 -3 -3 -4 -4 -4 -4 -4 -4 -4 -4 -4 -4 -4 -4 -4 -4 -4 -4 -5 -5 -5 -5 -5 -5 -5 -5 -5 -5 -5 -5 -5 -5 -5 -5 -5 -5 -5 -5 -4 -3 -3 -3 -4 -4 -4 -4 -3 -3 -3 -3 -3 -3 -3 -3 -3 -3 -3 -3 -3 -3 -3 -3 -3 -3 -3 -3 -2 -2 -2 -2 -2 -2 -2 -2 -2 -2 -2
-3 -3 -4 -4 -4 -4 -4 -4 -4 -4 -4 -4 -4 -4 -4 -4 -4 -4 -4 -4 -4 -4 -4 -4 -4 -4 -4 -4 -5 -5 -5 -5 -5 -5 -5 -6 -6 -6 -5 -5 -5 -5 -5 -5 -5 -5 -5 -4 -3 -3 -4 -4 -4 -4 -4 -4 -4 -4 -4 -4 -4 -3 -3 -3 -3 -3 -3 -3 -3 -3 -3 -3 -3 -3 -3 -3 -3 -3 -3 -3 -3 -3 -2 -2 -2 -3
-3 -4 -4 -4 -4 -4 -4 -4 -4 -4 -4 -4 -4 -4 -4 -4 -4 -5 -5 -4 -4 -5 -5 -5 -5 -5 -5 -4 -4 -5 -5 -5 -5 -5 -5 -6 -6 -5 -5 -5 -5 -5 -6 -6 -6 -5 -5 -4 -4 -4 -5 -5 -5 -5 -5 -4 -4 -4 -4 -4 -4 -4 -4 -3 -3 -3 -3 -3 -3 -3 -3 -3 -3 -3 -3 -3 -3 -3 -3 -3 -3 -3 -3 -3 -3 -3
-4 -4 -4 -4 -4 -4 -4 -4 -4 -4 -4 -4 -4 -4 -4 -4 -4 -5 -5 -5 -5 -5 -5 -5 -5 -5 -5 -5 -5 -5 -5 -5 -5 -5 -5 -5 -5 -5 -5 -5 -5 -6 -6 -6 -6 -6 -5 -5 -4 -5 -5 -5 -5 -5 -5 -4 -4 -4 -4 -4 -3 -3 -3 -3 -3 -3 -3 -3 -3 -3 -3 -3 -3 -3 -3 -3 -3 -3 -3 -3 -3 -3 -3 -3 -3 -3
-4 -4 -4 -4 -4 -5 -5 -5 -5 -5 -5 -4 -4 -4 -4 -4 -4 -5 -5 -5 -5 -5 -5 -5 -5 -5 -5 -5 -5 -5 -5 -5 -5 -5 -5 -5 -5 -5 -5 -5 -6 -6 -6 -6 -6 -6 -6 -5 -5 -5 -5 -4 -4 -4 -4 -4 -4 -4 -3 -3 -3 -3 -3 -3 -3 -3 -3 -3 -3 -3 -3 -3 -3 -3 -3 -3 -3 -3 -3 -3 -3 -3 -3 -3 -3 -4
-4 -5 -5 -5 -5 -5 -5 -5 -5 -5 -5 -5 -5 -4 -4 -5 -5 -5 -5 -5 -5 -5 -5 -5 -5 -5 -5 -5 -5 -5 -5 -5 -5 -5 -5 -5 -5 -5 -5 -6 -6 -6 -6 -6 -6 -7 -7 -6 -5 -5 -5 -4 -4 -4 -4 -3 -3 -3 -3 -3 -3 -3 -3 -3 -3 -3 -3 -3 -3 -3 -3 -3 -3 -4 -4 -4 -4 -4 -4 -4 -4 -4 -4 -4 -4 -4
-5 -5 -5 -5 -5 -5 -5 -5 -5 -5 -5 -5 -5 -5 -5 -5 -5 -5 -5 -5 -5 -5 -5 -5 -5 -5 -5 -5 -5 -5 -5 -5 -5 -5 -5 -5 -6 -6 -6 -6 -6 -6 -6 -6 -6 -7 -7 -7 -6 -5 -5 -5 -5 -5 -5 -5 -4 -4 -4 -4 -3 -3 -3 -3 -3 -3 -3 -3 -3 -3 -3 -3 -3 -3 -4 -4 -4 -4 -4 -4 -4 -4 -4 -4 -4 -4
-5 -5 -5 -5 -5 -5 -5 -5 -5 -5 -5 -5 -5 -5 -5 -5 -5 -5 -5 -5 -5 -5 -5 -5 -5 -5 -5 -5 -5 -5 -5 -5 -5 -5 -5 -6 -6 -6 -6 -6 -6 -6 -6 -6 -6 -6 -6 -6 -6 -6 -6 -6 -6 -6 -6 -6 -5 -5 -5 -5 -4 -4 -4 -4 -4 -4 -3 -3 -3 -3 -3 -3 -3 -3 -3 -4 -4 -4 -4 -4 -4 -4 -4 -4 -4 -4
-5 -5 -5 -5 -5 -5 -5 -5 -5 -5 -5 -5 -6 -6 -6 -5 -5 -5 -5 -5 -5 -5 -5 -5 -5 -5 -6 -6 -6 -5 -5 -5 -5 -5 -6 -6 -6 -6 -6 -6 -6 -6 -6 -6 -6 -6 -6 -6 -6 -6 -6 -6 -6 -6 -6 -6 -6 -6 -6 -5 -5 -5 -4 -4 -4 -4 -4 -4 -3 -3 -3 -3 -3 -3 -4 -4 -4 -4 -4 -4 -4 -4 -4 -4 -4 -4
-5 -5 -5 -5 -5 -5 -5 -5 -5 -5 -6 -6 -6 -6 -6 -6 -6 -6 -6 -6 -5 -5 -5 -6 -6 -6 -6 -6 -6 -6 -6 -6 -5 -6 -6 -6 -6 -6 -6 -6 -6 -6 -6 -6 -6 -6 -6 -6 -6 -6 -6 -6 -6 -6 -6 -6 -6 -6 -6 -6 -6 -5 -5 -5 -5 -4 -4 -4 -4 -4 -4 -4 -4 -4 -4 -4 -4 -4 -4 -4 -4 -5 -4 -4 -4 -4
-5 -5 -5 -5 -5 -5 -6 -6 -6 -6 -6 -6 -6 -6 -6 -6 -6 -6 -6 -6 -6 -6 -6 -6 -6 -6 -6 -6 -7 -6 -6 -6 -6 -6 -6 -6 -6 -6 -6 -6 -6 -6 -6 -6 -6 -6 -6 -6 -6 -6 -6 -6 -6 -6 -6 -6 -6 -6 -6 -6 -6 -6 -5 -5 -5 -5 -5 -4 -4 -4 -4 -4 -4 -5 -5 -5 -5 -5 -5 -5 -5 -5 -5 -4 -4 -4
-5 -5 -5 -6 -6 -6 -6 -6 -6 -6 -6 -6 -6 -6 -6 -6 -6 -6 -6 -6 -6 -6 -6 -6 -6 -6 -6 -6 -7 -7 -6 -6 -6 -6 -6 -6 -6 -6 -6 -7 -7 -7 -7 -7 -7 -7 -7 -7 -6 -6 -6 -6 -6 -6 -6 -6 -6 -7 -7 -7 -7 -6 -6 -6 -5 -5 -5 -5 -5 -5 -5 -5 -5 -5 -5 -5 -5 -5 -5 -5 -5 -5 -5 -5 -5 -5
-5 -6 -6 -6 -6 -7 -7 -7 -7 -7 -7 -6 -6 -7 -7 -7 -6 -7 -7 -7 -7 -7 -7 -7 -7 -7 -7 -7 -7 -7 -7 -7 -7 -6 -6 -6 -6 -7 -7 -7 -7 -7 -7 -7 -7 -7 -7 -7 -7 -7 -7 -6 -6 -6 -6 -7 -7 -7 -7 -7 -7 -7 -6 -6 -6 -6 -6 -6 -6 -6 -5 -5 -5 -5 -5 -5 -5 -5 -5 -5 -5 -5 -5 -5 -5 -5
-6 -6 -6 -7 -7 -7 -7 -7 -7 -7 -7 -7 -7 -7 -7 -7 -7 -7 -7 -7 -7 -7 -7 -7 -7 -7 -7 -7 -7 -7 -7 -7 -7 -7 -7 -7 -7 -7 -7 -7 -7 -7 -7 -7 -7 -7 -7 -7 -7 -7 -7 -7 -7 -7 -7 -7 -7 -7 -7 -7 -7 -7 -7 -6 -6 -6 -6 -6 -6 -6 -6 -6 -5 -5 -5 -5 -5 -5 -5 -5 -5 -5 -5 -5 -5 -5
-6 -7 -7 -7 -7 -7 -7 -7 -7 -7 -7 -7 -7 -7 -7 -7 -7 -7 -7 -8 -8 -8 -8 -8 -7 -7 -7 -7 -7 -7 -7 -7 -7 -7 -7 -7 -7 -7 -7 -7 -7 -7 -7 -7 -7 -7 -7 -7 -7 -7 -7 -7 -7 -7 -7 -7 -7 -7 -7 -7 -7 -6 -6 -6 -6 -6 -6 -6 -6 -6 -6 -6 -6 -5 -5 -5 -5 -5 -5 -5 -5 -5 -5 -5 -5 -5
-7 -7 -7 -7 -7 -7 -8 -8 -8 -8 -8 -8 -8 -8 -8 -8 -8 -8 -8 -8 -8 -8 -8 -8 -8 -7 -7 -7 -7 -7 -7 -7 -7 -7 -7 -7 -7 -8 -8 -8 -7 -7 -7 -7 -7 -7 -7 -7 -7 -7 -7 -7 -7 -7 -7 -7 -7 -7 -7 -7 -7 -7 -7 -7 -7 -6 -6 -6 -6 -6 -6 -6 -6 -6 -6 -6 -5 -5 -5 -5 -5 -5 -5 -5 -5 -5
-7 -7 -7 -7 -8 -8 -8 -8 -8 -8 -8 -8 -8 -8 -8 -8 -8 -8 -8 -8 -8 -8 -8 -8 -8 -8 -7 -7 -7 -7 -7 -7 -7 -7 -7 -8 -8 -8 -8 -8 -7 -7 -7 -7 -7 -7 -7 -7 -7 -7 -7 -7 -7 -7 -7 -7 -7 -7 -7 -7 -7 -7 -7 -7 -6 -6 -6 -6 -6 -6 -6 -6 -6 -6 -6 -6 -6 -6 -5 -5 -5 -5 -5 -5 -5 -5
-7 -8 -8 -8 -8 -8 -8 -8 -8 -8 -8 -8 -8 -8 -8 -8 -8 -8 -8 -8 -8 -8 -8 -8 -8 -8 -8 -8 -8 -7 -7 -7 -8 -8 -8 -8 -8 -7 -7 -7 -7 -7 -7 -7 -7 -8 -8 -7 -7 -7 -7 -7 -7 -7 -7 -7 -7 -7 -7 -7 -7 -7 -7 -6 -6 -6 -6 -6 -6 -6 -6 -6 -6 -6 -6 -6 -6 -6 -6 -6 -6 -6 -6 -5 -5 -5
-8 -8 -8 -8 -8 -8 -8 -8 -8 -8 -8 -8 -8 -8 -8 -8 -8 -8 -8 -8 -8 -8 -8 -8 -8 -8 -8 -8 -8 -8 -8 -8 -8 -8 -8 -8 -7 -7 -7 -7 -7 -7 -7 -7 -7 -7 -8 -7 -7 -7 -7 -7 -7 -7 -7 -7 -7 -7 -7 -7 -7 -7 -7 -6 -6 -6 -6 -6 -6 -6 -6 -6 -6 -6 -6 -6 -6 -6 -6 -6 -6 -6 -6 -6 -5 -5
-8 -8 -8 -8 -8 -8 -8 -8 -8 -8 -8 -8 -8 -8 -8 -8 -9 -9 -9 -8 -8 -8 -8 -8 -8 -8 -8 -8 -8 -7 -7 -7 -7 -7 -7 -7 -7 -7 -7 -7 -7 -7 -7 -7 -7 -7 -7 -7 -7 -7 -7 -7 -7 -7 -7 -7 -7 -7 -7 -7 -7 -7 -7 -7 -7 -7 -7 -7 -6 -6 -6 -6 -6 -6 -6 -6 -6 -6 -6 -6 -6 -6 -6 -6 -5 -5
-8 -8 -8 -8 -8 -8 -8 -8 -8 -8 -8 -8 -8 -8 -8 -9 -9 -9 -9 -8 -8 -8 -8 -8 -8 -8 -8 -7 -7 -7 -7 -7 -7 -7 -7 -7 -7 -7 -7 -7 -7 -7 -7 -7 -7 -7 -7 -7 -7 -7 -7 -7 -7 -7 -7 -7 -7 -7 -7 -7 -7 -7 -7 -7 -7 -7 -7 -7 -6 -6 -6 -6 -6 -6 -6 -6 -6 -6 -6 -6 -6 -5 -5 -5 -5 -5
-8 -8 -8 -8 -8 -8 -8 -8 -8 -8 -8 -8 -8 -8 -8 -8 -8 -8 -8 -8 -8 -8 -8 -8 -8 -8 -8 -8 -8 -8 -8 -7 -7 -7 -7 -7 -7 -7 -7 -7 -7 -7 -7 -7 -7 -7 -7 -7 -7 -7 -7 -7 -7 -7 -7 -7 -7 -7 -7 -7 -7 -7 -7 -7 -7 -7 -7 -6 -6 -6 -6 -6 -6 -6 -6 -6 -6 -6 -5 -5 -5 -5 -5 -5 -5 -5
-9 -9 -9 -9 -9 -9 -9 -9 -8 -8 -8 -8 -8 -8 -8 -8 -8 -8 -8 -8 -8 -8 -8 -8 -8 -8 -8 -8 -8 -8 -8 -7 -7 -7 -7 -7 -7 -7 -6 -6 -6 -6 -6 -6 -6 -7 -7 -7 -7 -7 -7 -7 -7 -7 -7 -7 -7 -7 -7 -7 -7 -7 -7 -7 -7 -7 -6 -6 -6 -6 -6 -6 -6 -6 -6 -6 -6 -6 -5 -5 -5 -5 -5 -5 -5 -5
-9 -9 -9 -9 -9 -9 -9 -9 -9 -9 -9 -9 -9 -9 -8 -8 -8 -8 -8 -8 -8 -8 -8 -8 -8 -8 -8 -8 -8 -8 -8 -7 -7 -7 -7 -7 -7 -7 -7 -7 -7 -6 -6 -6 -6 -6 -6 -6 -6 -6 -7 -7 -7 -7 -7 -7 -7 -7 -7 -7 -7 -7 -7 -7 -7 -6 -6 -6 -6 -6 -6 -6 -6 -6 -6 -6 -6 -5 -5 -5 -5 -5 -5 -5 -5 -5
-10 -10 -10 -10 -10 -9 -9 -9 -9 -9 -9 -9 -9 -9 -9 -9 -9 -9 -9 -9 -9 -8 -8 -8 -8 -8 -8 -8 -8 -8 -8 -8 -7 -7 -7 -7 -7 -7 -7 -7 -7 -7 -7 -7 -7 -7 -7 -6 -6 -6 -6 -7 -7 -7 -7 -7 -7 -7 -7 -7 -7 -7 -7 -7 -6 -6 -6 -6 -6 -6 -6 -5 -6 -6 -6 -6 -6 -5 -5 -5 -5 -5 -5 -5 -5 -5
-10 -10 -10 -10 -10 -10 -10 -10 -10 -10 -9 -9 -9 -9 -9 -9 -9 -9 -9 -9 -8 -8 -8 -8 -8 -8 -8 -8 -8 -8 -8 -8 -7 -7 -7 -7 -7 -7 -7 -7 -7 -7 -7 -7 -7 -7 -6 -6 -6 -6 -6 -6 -6 -6 -6 -6 -7 -7 -7 -7 -7 -6 -6 -6 -6 -6 -6 -6 -6 -5 -5 -5 -6 -6 -6 -6 -6 -5 -5 -5 -5 -5 -5 -5 -5 -5
Height
819 819 819 819 819 819 819 819 819 820 820 821 820 820 820 820 821 821 821 822 822 823 823 824 824 824 825 825 826 827 827 828 828 828 828 828 828 828 828 828 828 828 829 829 829 829 829 829 829 830 830 830 830 830 830 830 830 831 831 831 831 831 831 831 831 831 831 831 831 831 831 831 830 830 830 830 830 830 830 830 830 830 830 830 830 830
820 819 819 819 819 819 819 820 820 820 820 821 821 820 820 820 821 821 821 822 822 823 823 823 824 824 825 825 825 826 826 827 827 828 828 828 828 828 828 828 828 828 828 828 829 829 829 829 830 830 830 830 829 829 829 830 830 830 830 830 830 830 830 830 830 830 830 830 830 829 829 829 829 829 829 829 829 829 829 829 829 829 829 829 829 829
820 820 820 820 820 820 820 820 820 820 820 821 821 821 821 821 821 821 822 822 822 822 823 823 824 824 824 824 825 825 825 826 826 827 827 827 827 827 827 827 827 828 828 828 829 829 829 829 829 829 829 829 829 829 829 829 829 829 829 829 829 829 829 829 829 829 829 829 829 829 828 828 828 828 828 828 828 828 828 828 828 828 828 828 828 829
820 820 820 820 820 820 820 820 820 820 820 820 821 821 821 821 821 822 822 822 822 822 822 823 823 823 823 824 824 824 824 825 825 826 826 826 826 826 826 826 827 827 828 828 829 829 829 829 829 829 828 828 828 828 828 828 828 828 828 828 828 828 828 828 828 828 828 828 827 827 827 827 827 827 827 827 827 827 827 827 827 827 827 827 827 827
820 820 820 820 820 820 820 820 820 820 820 820 820 820 821 821 821 821 821 822 822 822 822 822 822 823 823 823 823 824 824 824 825 825 825 825 825 825 825 826 826 827 828 828 828 828 828 828 828 828 828 827 827 827 827 827 827 827 827 827 827 827 827 827 826 826 826 826 826 826 826 826 826 826 826 826 826 826 826 826 826 826 826 826 826 826
820 820 820 820 820 820 820 820 820 820 820 820 820 820 820 820 820 821 821 821 821 822 822 822 822 822 823 823 823 823 824 824 824 824 824 824 824 825 825 826 826 827 827 827 828 828 827 827 827 827 827 827 826 826 826 826 826 826 826 826 825 825 825 825 825 825 825 825 825 825 825 825 825 825 825 825 825 825 825 825 825 825 825 825 825 825
820 821 821 821 821 821 821 820 820 820 820 820 820 820 820 820 821 821 821 821 821 822 822 822 822 822 822 823 823 823 823 824 824 824 824 824 824 825 825 826 826 827 827 827 827 827 827 826 826 826 826 825 825 825 825 825 825 824 824 824 824 824 824 824 824 824 824 824 824 824 824 824 824 824 824 824 824 824 824 824 824 824 824 824 824 825
820 821 821 821 821 821 821 821 821 820 820 820 820 820 821 821 821 821 821 821 822 822 822 822 822 822 822 823 823 823 823 823 823 824 824 824 824 824 825 825 826 826 826 826 826 826 826 825 825 825 824 824 824 824 824 823 823 823 823 823 823 823 823 823 823 823 823 823 823 823 823 823 823 823 823 823 823 823 823 823 823 823 823 824 824 824
821 821 821 821 821 821 821 821 821 821 821 821 821 821 821 821 821 821 822 822 822 822 822 822 822 822 822 822 823 823 823 823 823 823 823 824 824 824 824 825 825 825 825 825 825 824 824 824 824 823 823 823 822 822 822 822 822 822 821 821 821 821 821 821 821 821 821 821 821 821 821 821 821 821 822 822 822 822 822 822 822 822 822 822 823 823
821 821 821 821 821 821 821 821 821 821 821 821 821 822 822 822 822 822 822 822 822 822 822 822 822 822 822 822 822 822 822 823 823 823 823 823 823 824 824 824 824 824 824 824 824 823 823 822 822 822 821 821 821 820 820 820 820 820 820 820 820 820 820 820 820 820 820 820 820 820 820 820 820 820 820 821 821 821 821 821 821 821 821 821 821 821
821 821 821 821 821 822 822 822 822 822 822 822 822 822 822 822 822 822 822 822 822 822 822 822 822 822 822 822 822 822 822 822 822 822 823 823 823 823 823 823 823 823 823 823 822 821 821 820 820 820 819 819 819 819 819 818 818 818 818 819 819 819 819 819 819 819 819 819 819 819 819 819 819 819 819 819 820 820 820 820 820 820 820 820 820 820
821 821 821 822 822 822 822 822 822 822 822 822 822 822 822 822 822 822 822 822 822 822 822 822 822 822 822 822 822 822 822 822 822 822 822 822 822 822 822 822 822 822 822 821 821 820 819 819 818 818 818 817 817 817 817 817 817 817 817 817 817 817 817 817 817 817 817 817 818 818 818 818 818 818 819 819 819 819 819 819 819 819 819 819 819 819
821 821 821 821 822 822 822 822 822 822 822 822 822 822 822 822 822 822 822 822 822 822 822 822 822 822 822 822 822 822 822 822 822 822 822 822 822 821 821 821 821 820 820 819 819 819 818 817 817 816 816 815 815 815 815 815 815 815 815 815 815 815 815 815 816 816 816 816 816 817 817 817 817 817 817 817 818 818 818 818 818 818 818 818 818 818
821 821 821 821 821 821 822 822 822 822 822 822 822 822 822 822 822 822 822 822 822 822 822 822 822 822 821 821 821 821 821 821 821 821 821 821 821 820 820 819 819 819 818 818 817 817 817 816 815 815 814 814 814 814 814 814 814 814 814 814 814 814 814 814 814 814 815 815 815 815 816 816 816 816 816 816 816 816 817 817 817 817 817 817 817 817
821 821 821 821 821 821 822 822 822 822 822 822 822 822 822 822 822 822 822 822 822 822 822 821 821 821 821 821 821 821 821 821 820 820 820 820 819 819 819 818 817 817 817 816 816 815 815 814 814 814 813 813 813 813 813 813 813 813 813 813 813 813 813 813 814 814 814 814 814 814 814 814 815 815 815 815 815 815 815 815 815 815 815 815 815 816
821 821 821 821 822 822 822 822 822 822 822 822 822 822 822 822 822 822 822 822 822 822 821 821 821 821 821 821 821 820 820 820 819 819 819 819 818 818 818 817 816 815 815 815 814 814 814 813 813 812 812 812 812 812 812 812 812 812 812 812 812 812 812 812 813 813 813 813 813 813 814 814 814 814 814 814 814 814 814 814 814 814 814 814 814 814
821 821 821 822 822 822 822 822 822 822 822 822 822 822 822 822 822 822 822 822 822 822 821 821 821 821 820 820 820 820 820 819 819 818 818 817 817 817 817 816 815 814 814 813 813 813 812 812 812 811 811 811 811 811 811 811 811 811 811 811 811 811 811 811 811 812 812 812 812 812 812 813 813 813 813 813 813 813 813 813 813 813 813 813 813 813
821 822 822 822 822 822 822 822 822 822 822 822 822 822 822 822 822 822 822 822 821 821 821 821 821 821 820 820 820 820 819 819 818 817 817 816 815 815 815 815 814 813 812 812 812 811 811 811 811 810 810 810 810 810 810 810 810 810 810 810 810 810 810 810 810 810 810 811 811 811 811 811 811 811 811 811 812 812 812 812 812 812 812 812 812 812
822 822 822 822 822 822 822 822 822 822 822 822 822 822 822 822 821 821 821 821 821 821 821 821 821 820 820 820 819 819 819 819 818 817 815 814 814 814 814 814 813 812 811 811 810 810 810 810 810 809 809 809 809 809 809 809 809 809 809 809 809 809 809 809 809 809 809 809 810 810 810 810 810 810 810 810 810 810 810 810 810 810 810 810 810 810
822 822 822 822 822 822 822 822 822 822 822 822 821 821 821 821 821 821 821 821 820 820 820 820 820 820 819 819 819 819 818 818 817 816 814 813 813 813 813 812 811 810 810 810 809 809 809 809 809 809 808 808 808 808 808 807 807 807 807 807 807 807 808 808 808 808 808 809 809 809 809 809 809 809 809 809 809 809 809 809 809 809 809 809 809 809
821 821 821 822 822 822 822 822 822 822 822 821 821 821 821 821 821 820 820 820 820 820 819 819 819 819 819 819 818 818 817 817 816 815 813 812 811 811 811 811 810 809 809 809 809 809 808 808 807 807 807 807 807 806 806 806 806 806 806 806 806 806 806 806 807 807 807 807 807 808 808 808 808 808 808 808 808 808 808 808 808 808 807 807 807 807
821 821 821 821 821 822 822 822 821 821 821 821 821 821 821 820 820 820 820 820 819 819 819 819 819 818 818 818 817 817 816 816 815 814 813 811 810 810 810 810 809 809 808 808 807 807 807 807 806 806 806 805 805 805 804 804 804 804 804 804 804 805 805 805 805 806 806 806 806 806 807 807 807 807 807 807 806 806 806 806 806 806 806 805 805 805
821 821 821 821 821 821 821 821 821 821 821 821 821 821 820 820 820 820 819 819 819 819 818 818 818 817 817 816 816 816 815 815 814 814 813 811 810 809 809 809 808 808 807 806 806 806 805 805 805 805 804 804 804 803 803 803 803 803 803 803 803 804 804 804 804 804 805 805 805 805 805 805 805 805 805 805 805 805 805 804 804 804 804 804 804 804
821 821 821 821 821 821 821 821 821 821 821 821 821 820 820 820 819 819 819 819 818 818 818 817 817 816 816 815 815 815 815 814 814 813 813 811 810 809 809 808 808 807 806 806 805 805 804 804 804 803 803 803 802 802 801 801 801 801 801 802 802 802 803 803 803 804 804 804 804 804 804 804 804 804 804 804 803 803 803 803 803 803 802 802 802 802
821 821 821 821 821 821 821 821 821 821 820 820 820 819 819 819 819 818 818 818 817 817 817 816 816 815 815 815 814 814 814 814 813 813 812 811 809 809 809 808 807 806 805 805 804 804 803 802 802 802 801 801 800 800 800 800 800 800 800 801 801 802 802 802 803 803 803 803 803 803 803 803 802 802 802 802 802 802 801 801 801 801 801 800 800 800
820 821 821 821 821 821 821 821 820 820 820 820 819 819 818 818 817 817 817 816 816 816 816 815 815 814 814 814 814 813 813 813 812 812 812 811 809 809 808 808 807 806 805 804 803 803 802 801 800 800 800 799 799 799 799 799 799 799 800 800 800 801 801 801 801 801 801 801 801 801 801 801 801 800 800 800 800 800 800 799 799 799 799 799 799 798
820 820 820 820 820 820 820 819 819 819 819 819 819 818 817 817 816 815 815 815 815 815 815 814 814 813 813 813 813 813 812 812 812 811 811 810 809 808 808 807 807 806 804 803 802 802 801 800 799 799 799 798 798 798 798 798 798 798 799 799 799 799 799 799 799 799 799 799 799 799 799 799 799 799 799 799 798 798 798 798 798 797 797 797 796 796
820 820 819 819 819 819 819 819 818 818 818 818 818 817 817 816 815 814 814 814 814 814 814 813 813 813 812 812 812 812 812 811 811 810 810 810 809 808 807 807 806 806 804 803 801 800 800 799 799 798 798 798 798 798 798 798 798 798 797 797 797 797 798 798 798 798 798 798 798 798 798 798 797 797 797 797 797 796 796 796 796 796 795 795 794 794
819 819 819 819 818 818 818 817 817 817 817 816 816 816 815 814 814 813 812 813 813 813 812 812 812 812 812 811 811 811 811 810 810 809 809 809 809 808 807 807 806 806 804 803 800 799 799 798 798 798 797 797 797 797 797 797 797 797 797 797 797 797 797 797 797 797 797 797 796 796 796 796 795 795 795 795 795 795 794 794 794 794 794 793 793 792
818 818 818 818 817 817 816 816 816 815 815 815 814 814 813 813 812 812 811 811 812 811 811 811 811 811 811 811 811 810 810 809 809 809 809 809 808 807 807 807 806 806 805 804 801 799 798 797 797 797 797 797 797 797 797 797 797 797 796 796 796 796 796 796 795 795 795 795 795 794 794 794 794 794 793 793 793 793 793 793 793 793 792 791 791 790
817 817 817 816 816 816 815 815 814 814 814 813 813 812 812 811 811 810 810 810 810 810 810 810 810 810 810 810 810 810 809 809 809 809 809 808 808 807 807 806 806 806 805 805 804 802 799 797 796 797 797 797 796 796 796 796 796 796 795 795 794 794 794 794 794 794 794 793 793 793 792 792 792 791 791 791 791 791 791 791 791 791 791 790 789 789
816 816 816 815 815 814 814 814 813 812 812 811 811 810 810 810 810 809 809 809 809 809 809 809 809 809 809 809 809 809 809 809 808 808 808 808 807 806 806 806 805 805 805 805 805 804 803 799 797 796 796 796 796 795 795 794 794 794 794 793 793 793 793 793 793 792 792 792 791 791 791 790 790 790 789 789 789 789 789 789 790 790 789 789 788 787
815 815 814 814 814 813 813 812 811 811 810 810 810 809 809 809 809 809 809 809 809 808 808 808 808 808 808 808 808 808 808 808 808 808 808 807 806 806 805 805 805 805 804 804 804 804 803 801 798 796 795 795 794 794 794 793 793 793 792 792 792 791 791 791 791 790 790 790 789 789 789 789 788 788 788 788 788 788 788 788 788 788 788 787 787 786
814 813 813 813 812 811 811 810 810 809 809 809 809 809 809 808 808 808 808 808 808 808 808 808 808 807 807 807 807 807 807 807 808 808 807 806 806 805 805 804 804 804 804 803 803 802 802 800 799 797 795 794 793 793 793 792 792 792 791 791 790 790 790 789 789 789 788 788 788 787 787 787 787 787 787 786 786 786 786 786 786 786 786 786 786 786
812 812 811 811 810 810 809 809 809 809 808 808 808 808 808 808 808 808 808 807 807 807 807 807 807 807 806 806 806 806 806 806 807 807 806 806 805 804 804 804 804 803 803 802 802 801 800 799 798 797 795 793 792 791 792 791 791 790 790 789 789 789 788 788 788 787 787 786 786 786 786 786 785 785 785 785 785 785 785 784 785 785 785 785 785 785
811 810 810 809 809 809 808 808 808 808 808 808 808 807 807 807 807 807 807 807 807 807 806 806 806 806 806 805 805 804 804 804 805 805 805 805 804 804 803 803 802 803 802 801 801 800 799 798 797 796 795 794 791 790 790 790 790 789 789 788 788 787 787 787 786 786 785 785 784 784 784 784 784 784 784 784 784 784 783 783 783 784 784 784 784 784
809 809 809 808 808 807 807 807 807 807 807 807 807 807 807 806 806 806 806 806 806 805 805 805 805 805 804 804 804 803 803 803 803 803 803 803 803 803 802 801 801 801 801 801 800 799 799 798 796 795 794 793 792 790 789 788 788 788 787 787 786 786 785 785 785 785 784 784 783 783 783 783 783 783 782 782 782 782 782 782 782 782 782 782 781 781
808 808 808 807 807 807 806 806 806 806 806 806 806 806 806 805 805 805 805 805 804 804 804 804 804 804 803 803 803 802 802 802 801 801 802 801 801 801 800 799 799 799 799 799 799 799 798 797 796 794 793 792 791 790 789 788 787 786 785 785 785 784 784 784 784 784 783 783 782 782 782 782 781 781 781 781 781 780 780 780 780 780 780 779 779 779
807 807 807 806 806 806 806 805 805 805 805 805 805 805 804 804 804 804 804 804 803 803 803 802 802 802 802 802 801 801 801 800 800 800 800 800 799 799 799 798 798 797 798 798 798 797 797 796 795 794 793 791 789 789 788 788 787 786 784 784 783 783 783 783 783 783 782 782 781 781 780 780 780 780 780 779 779 779 779 778 778 778 778 777 777 776
806 806 806 806 805 805 805 805 804 804 804 804 804 804 804 803 803 803 803 802 802 802 801 801 801 801 800 800 800 800 799 799 799 799 799 798 798 798 797 797 796 796 796 796 796 796 795 795 794 793 793 791 789 788 787 786 786 785 784 783 782 781 782 782 782 781 781 780 780 780 779 779 779 779 779 778 778 778 777 777 776 776 776 775 775 774
805 805 805 805 804 804 804 804 804 803 803 803 803 803 803 802 802 802 802 801 801 800 800 800 799 799 799 799 799 799 798 798 798 797 797 797 796 796 796 796 795 795 795 795 794 794 794 794 793 792 791 791 789 788 787 786 785 785 785 784 782 781 780 780 780 780 780 779 779 779 779 778 778 778 777 777 776 776 776 775 774 774 774 774 773 772
804 804 804 804 804 803 803 803 803 802 802 802 802 802 802 802 801 801 800 800 800 799 799 799 799 798 798 797 797 797 797 797 796 796 796 796 795 795 795 794 794 794 794 794 793 793 793 792 792 791 790 790 789 788 786 784 784 784 784 783 782 780 779 779 779 779 779 778 778 778 778 777 776 776 776 775 775 774 774 774 773 772 772 771 771 770
804 803 803 803 803 802 802 802 802 801 801 801 801 801 801 801 801 800 800 799 799 799 799 798 798 797 796 796 795 795 796 796 795 795 795 795 794 794 794 794 793 793 793 793 792 791 791 791 791 790 789 789 789 787 785 784 783 783 783 783 782 781 779 777 777 777 778 777 777 776 776 776 775 774 774 774 773 772 772 771 771 770 770 769 769 768
803 803 802 802 802 802 801 801 801 801 800 800 800 800 800 800 800 799 799 799 798 798 798 798 797 797 796 795 795 794 795 795 795 794 794 794 794 793 793 793 792 792 792 791 791 790 790 790 789 789 789 789 788 787 785 784 783 782 781 781 781 781 779 777 776 776 776 775 775 775 774 774 774 773 772 772 771 770 770 769 769 768 768 767 767 766
802 801 801 801 801 800 800 800 800 800 800 799 799 799 799 799 799 799 799 798 798 797 797 797 797 796 795 795 794 794 794 794 794 794 793 793 793 792 792 792 791 791 791 790 790 789 789 789 788 788 788 787 787 785 784 783 782 781 780 780 780 779 778 776 776 775 774 774 773 773 773 773 772 772 770 769 769 768 768 767 766 766 765 765 764 764
800 800 800 800 799 799 799 799 799 799 799 799 799 799 798 798 798 798 798 798 797 797 796 796 796 795 795 794 794 794 793 793 793 792 792 792 792 792 791 791 790 790 789 789 789 789 788 788 787 787 786 786 785 784 783 782 781 780 779 779 778 778 776 775 775 774 774 773 772 771 771 772 771 770 769 768 767 766 765 765 764 764 763 763 762 762
799 799 799 799 799 799 798 798 798 798 798 798 798 798 797 797 797 797 797 797 796 796 796 796 795 795 794 794 793 793 793 792 791 791 791 791 791 790 790 790 789 789 789 788 788 787 787 786 786 786 785 785 784 782 781 781 780 779 778 778 777 776 775 774 773 773 773 772 771 770 770 770 770 769 768 766 765 764 763 763 763 762 762 761 760 759
798 798 798 798 798 798 798 797 797 797 797 797 796 796 796 796 796 796 796 796 796 796 795 795 794 794 794 793 793 792 792 791 791 790 790 790 789 789 789 789 788 788 788 787 787 786 785 785 784 784 784 784 782 780 779 779 779 778 777 777 776 775 774 773 772 771 771 770 770 769 769 769 769 768 766 765 764 762 761 760 760 760 759 759 759 758
797 797 797 797 797 797 797 797 797 796 796 796 796 795 795 795 795 795 795 795 795 795 794 794 794 793 793 792 792 791 791 791 790 790 789 789 789 788 788 788 787 787 786 786 785 784 784 783 783 782 782 781 780 779 777 776 776 776 776 775 775 774 773 771 770 770 770 769 769 768 768 768 767 767 766 764 762 760 759 758 757 757 757 757 757 756
796 796 796 796 796 796 796 796 796 795 795 795 795 795 794 794 794 794 794 794 794 794 794 793 793 792 792 791 791 790 790 790 789 789 788 788 788 787 787 787 786 786 785 785 784 783 782 781 780 779 779 779 778 777 776 775 774 774 774 774 773 772 771 770 769 768 768 768 767 767 766 766 766 765 765 764 761 759 757 755 755 754 755 755 754 754
795 795 795 795 795 795 795 795 795 794 794 794 794 794 794 793 793 793 793 793 793 793 793 792 792 791 791 790 790 789 789 789 788 788 787 787 787 787 786 786 786 785 785 784 783 782 782 780 779 777 776 776 776 776 774 774 773 773 772 771 771 770 770 769 767 767 766 766 765 765 765 764 764 763 763 762 760 758 755 754 752 752 752 753 752 752
Wind_Speed
6 6 6 6 6 5 5 5 5 5 6 8 9 7 7 7 7 7 9 10 11 12 12 13 13 13 14 14 14 14 13 12 11 10 10 9 9 9 9 8 8 8 8 9 9 9 9 9 9 9 10 10 10 10 10 10 10 10 11 11 11 11 11 11 11 11 10 10 10 10 10 10 10 10 10 10 10 10 10 10 11 11 11 11 11 11
6 6 6 6 5 4 4 5 5 5 6 8 9 9 8 8 7 7 8 9 10 11 11 11 11 11 12 12 13 13 13 12 11 10 9 9 8 8 8 8 8 8 8 8 9 9 9 9 9 9 9 9 9 9 9 10 10 10 10 11 11 11 11 10 10 10 10 10 10 10 10 10 10 10 10 10 10 10 10 10 10 10 10 10 10 11
6 6 5 5 5 4 4 5 5 5 5 6 7 9 9 9 9 9 9 10 11 11 11 11 10 10 11 11 12 12 11 10 9 8 8 7 7 7 6 6 7 7 8 8 8 8 8 9 9 9 10 10 10 10 10 10 10 10 10 10 10 10 10 9 9 9 9 9 9 9 9 9 9 9 10 10 10 10 10 10 10 10 10 10 10 10
6 6 5 5 5 5 5 5 5 5 5 4 5 7 8 9 10 11 11 12 12 12 11 11 10 10 10 10 10 9 8 7 6 6 5 5 5 5 5 6 6 7 7 7 7 8 8 9 10 10 10 10 10 10 10 10 10 10 10 10 9 9 9 9 9 9 9 9 9 9 9 9 9 10 10 10 10 10 10 10 10 10 10 10 10 10
5 5 5 5 5 5 5 5 5 5 5 4 4 4 5 7 8 9 9 10 10 10 10 9 9 8 8 7 6 6 5 5 4 4 4 4 5 5 6 6 6 6 6 6 7 8 9 9 10 10 10 10 10 10 10 10 10 10 10 9 9 9 9 9 9 9 9 9 9 10 10 10 10 10 10 10 10 10 10 10 10 10 10 10 10 10
3 4 5 5 5 5 5 5 5 5 4 3 3 3 3 3 4 5 6 7 7 8 7 7 6 5 5 4 4 4 4 4 4 4 4 5 5 5 5 5 5 5 5 6 7 8 9 9 10 10 10 10 10 10 10 10 10 9 9 9 9 9 9 9 9 9 9 10 10 10 10 10 10 10 10 10 10 10 10 10 10 10 10 10 10 10
2 3 4 4 4 4 4 4 4 4 4 4 4 3 3 2 2 3 3 4 4 4 4 4 3 3 3 2 3 3 4 4 4 5 5 5 5 5 4 4 4 5 6 7 8 9 9 9 9 9 9 9 9 9 9 9 9 9 9 9 9 9 9 9 9 10 10 10 10 10 10 11 11 11 11 10 10 10 10 10 10 10 10 10 10 10
0 2 3 3 3 3 3 4 4 4 5 4 4 4 3 3 2 2 1 2 2 2 1 1 1 1 2 2 3 3 4 4 5 5 6 7 7 7 7 7 7 7 8 9 9 10 10 10 10 10 9 9 9 9 9 9 9 9 9 9 9 10 10 10 10 10 10 11 11 11 11 11 11 11 11 11 11 10 10 10 10 10 10 10 10 10
2 2 3 3 4 4 4 4 4 5 4 4 4 3 3 2 2 1 1 1 1 1 1 1 1 2 2 3 3 4 5 5 6 6 7 8 8 9 10 10 10 11 11 11 11 11 11 11 11 11 11 10 10 10 10 10 11 11 11 10 10 10 11 11 11 11 11 11 12 12 12 12 11 11 11 11 11 10 10 10 10 10 10 10 11 11
3 3 4 4 4 4 4 4 4 4 4 3 3 2 2 1 1 1 1 1 2 2 2 3 3 3 3 4 5 5 6 6 6 7 7 8 9 9 10 11 12 13 13 13 13 13 12 12 12 12 12 12 11 11 11 11 12 12 12 12 12 12 12 12 12 12 13 13 13 12 12 12 11 11 11 11 10 10 10 10 10 10 11 11 11 11
4 4 4 4 4 4 4 4 3 3 3 2 2 2 1 2 2 3 3 3 3 3 3 4 4 4 4 4 5 5 6 6 6 7 8 8 9 10 11 12 13 14 14 14 14 14 14 14 13 13 13 13 13 13 13 13 14 14 14 14 14 14 14 15 15 15 14 14 13 12 12 11 11 11 10 10 10 10 10 11 11 11 11 11 11 11
4 4 3 3 3 3 3 3 3 3 2 2 2 2 2 3 3 4 4 4 4 3 3 3 3 3 4 4 4 5 5 6 7 8 9 10 11 12 13 14 14 14 14 14 14 14 13 13 14 14 14 15 15 16 16 16 17 17 17 17 17 17 17 17 16 15 14 13 12 11 11 11 10 10 10 10 10 10 10 11 11 11 11 11 12 12
4 4 3 3 3 3 4 4 3 3 3 3 3 3 2 3 3 4 4 4 3 3 3 3 3 3 4 4 5 5 6 7 8 9 10 11 12 14 14 15 15 15 15 15 14 13 12 12 13 14 15 16 17 17 18 18 18 18 18 18 18 18 17 16 15 14 12 11 11 10 10 10 10 10 10 10 10 10 11 11 11 11 12 12 12 13
5 4 4 4 5 5 5 5 5 5 4 4 4 3 3 3 3 3 3 3 3 3 3 3 3 4 4 5 6 6 7 8 9 10 11 12 13 14 15 15 16 17 17 17 16 14 12 11 12 13 14 15 16 17 17 17 18 18 18 17 17 16 15 13 12 11 11 10 10 10 10 10 10 10 10 10 10 11 11 11 12 12 12 12 13 13
6 6 6 6 6 7 7 6 6 6 5 4 4 4 3 3 3 3 3 3 2 3 4 4 4 5 5 6 6 7 8 9 10 11 11 12 13 14 15 16 18 19 19 19 18 15 12 11 11 12 13 13 14 15 15 15 15 15 14 14 13 12 11 11 10 10 10 10 10 10 10 10 10 10 10 11 11 11 11 12 12 12 12 13 13 14
7 7 7 7 7 7 7 6 6 6 5 4 4 4 3 3 3 3 3 3 3 4 5 5 5 5 5 6 6 6 7 8 10 11 12 13 14 15 17 18 20 21 21 19 17 14 11 10 10 11 11 11 12 12 12 12 12 11 11 10 10 10 10 10 10 10 10 10 10 10 10 11 11 11 11 11 11 12 12 12 12 12 13 13 13 14
7 7 7 7 7 6 6 5 5 5 5 4 4 4 4 4 4 4 4 4 5 5 5 5 5 6 6 6 6 6 7 9 10 12 14 16 18 18 19 19 20 21 20 18 14 11 9 8 8 9 9 10 10 10 10 10 10 10 9 9 10 10 10 10 10 11 11 11 11 11 11 11 11 11 11 12 12 12 12 12 12 13 13 13 13 14
6 6 5 5 5 5 5 5 5 5 5 5 5 6 6 5 6 6 6 6 5 5 5 5 5 5 6 6 6 7 8 10 13 15 17 19 20 20 19 18 18 18 18 15 12 9 7 7 7 8 8 9 9 10 10 10 10 10 10 10 10 11 11 11 11 11 11 11 11 11 11 11 12 12 12 12 12 12 12 12 12 13 13 13 14 14
4 4 4 4 3 4 5 5 6 6 6 7 7 7 7 7 7 7 7 7 7 6 6 6 6 6 7 7 8 9 10 12 14 17 18 19 19 18 17 16 16 16 15 13 10 8 7 7 8 8 9 9 9 10 10 10 11 11 11 11 11 12 12 12 12 12 12 12 12 12 11 11 12 12 12 12 12 12 12 12 13 13 13 14 14 14
3 3 3 3 3 4 4 5 6 6 7 8 8 8 8 8 8 8 8 8 8 8 8 7 7 7 7 8 9 10 12 14 16 17 17 17 16 15 14 13 14 14 14 12 10 9 9 9 9 9 10 10 10 10 10 11 11 12 12 13 13 13 13 13 13 13 12 12 12 12 12 12 12 12 12 12 12 12 12 13 13 13 14 14 14 15
3 2 3 3 3 3 4 4 5 6 7 7 8 8 8 8 8 8 7 8 8 9 9 8 8 8 9 10 11 12 14 15 16 15 15 15 14 14 13 12 12 13 14 13 12 11 11 11 11 11 11 11 11 11 11 11 12 13 13 14 14 14 14 14 14 13 13 13 13 12 12 12 12 12 12 12 12 13 13 13 14 14 14 14 14 15
2 2 2 2 2 3 3 4 5 5 6 6 7 7 7 8 8 8 9 9 9 9 9 10 10 11 12 13 14 14 14 15 15 14 13 13 13 13 13 12 13 14 14 15 14 13 13 13 13 12 12 12 12 12 12 12 13 13 14 14 14 14 14 14 14 13 13 13 12 12 12 12 12 12 12 12 13 13 14 14 14 14 14 14 14 14
2 1 2 2 2 2 3 4 5 5 6 6 7 7 8 8 9 9 10 10 11 11 12 13 14 14 14 14 14 14 13 12 13 13 11 10 11 12 13 13 14 15 16 16 15 14 14 14 13 13 13 13 13 13 12 13 13 13 13 13 14 13 13 13 13 12 12 12 12 11 11 11 12 12 13 13 14 14 14 14 14 14 14 14 14 14
2 2 2 2 2 2 3 4 5 5 6 7 7 8 9 10 10 11 11 12 13 13 14 15 15 15 14 14 13 12 11 10 11 10 9 9 11 12 12 13 15 16 17 16 16 16 16 16 15 14 13 12 12 11 11 12 12 12 12 12 12 11 11 11 11 10 10 10 10 10 11 11 12 13 14 14 14 14 14 14 14 14 14 14 14 15
1 1 2 2 2 2 3 4 5 6 7 8 9 10 11 12 13 13 14 14 14 15 15 15 15 14 13 12 11 11 10 9 9 9 9 9 11 12 12 13 15 16 16 16 17 17 19 19 17 14 11 9 8 9 9 10 10 9 8 8 8 8 8 8 8 8 9 9 10 10 11 12 13 14 14 15 15 14 14 14 14 14 14 14 15 15
1 1 1 2 2 3 3 5 6 7 8 10 11 12 13 14 15 15 16 16 16 16 15 14 13 13 13 11 11 10 9 9 9 9 9 9 10 12 12 13 13 14 15 17 19 20 20 20 17 12 8 5 5 6 7 7 6 4 4 4 5 5 6 6 7 8 9 9 10 11 12 13 14 15 15 15 14 14 14 14 14 14 14 15 16 16
1 2 2 3 4 5 6 8 9 9 10 11 12 13 13 14 15 16 16 16 15 14 13 12 11 11 11 10 10 9 9 9 9 10 10 10 11 11 11 11 12 13 16 18 20 21 20 18 14 9 4 3 3 4 5 5 5 4 4 5 5 6 7 7 8 9 10 11 12 13 14 15 15 15 15 14 14 13 14 14 14 15 15 16 16 17
5 5 6 7 8 9 10 11 12 13 13 14 13 13 13 14 14 15 15 15 13 12 11 11 11 10 9 9 9 10 10 10 10 11 11 10 9 9 10 10 11 13 16 19 21 21 18 14 10 6 3 2 3 3 4 4 5 6 7 7 8 8 9 10 10 11 12 13 14 15 15 16 15 15 14 13 13 13 14 14 15 15 16 16 17 18
8 9 9 10 11 12 13 14 14 15 16 17 16 15 14 14 14 15 16 15 13 12 12 12 12 11 10 11 11 11 11 11 11 10 9 8 7 7 8 9 11 13 15 17 19 17 14 11 7 4 2 2 3 3 4 4 5 6 8 9 10 11 11 12 13 14 15 16 16 16 16 15 14 14 13 13 14 14 14 15 15 15 16 16 17 18
9 10 11 12 13 13 14 15 16 17 18 19 18 16 14 13 13 14 14 14 13 13 13 13 13 12 11 11 10 9 9 8 6 5 6 5 6 7 9 10 11 12 13 14 13 11 10 9 6 3 2 2 2 3 5 6 8 9 10 11 13 14 14 15 16 17 17 17 16 16 15 14 14 14 14 14 14 14 14 14 15 15 16 17 18 19
11 12 13 13 14 15 16 17 19 20 20 20 18 16 13 11 11 11 11 12 12 13 14 14 14 13 11 9 6 4 5 5 4 4 6 6 6 8 10 10 10 11 11 10 8 6 6 7 5 3 5 8 10 12 13 14 13 12 12 12 13 14 14 15 15 15 15 15 14 14 14 14 14 14 14 14 14 14 14 14 14 14 15 16 18 19
13 14 14 15 16 17 18 20 21 21 21 19 16 13 10 8 8 8 8 9 10 11 12 13 13 13 12 10 8 6 7 7 7 8 9 8 8 10 10 10 10 11 10 9 8 5 3 5 8 11 14 16 19 20 20 19 17 14 12 11 11 10 10 10 11 12 12 13 13 13 13 14 14 14 14 14 14 14 14 13 13 14 15 16 17 19
15 16 16 17 18 20 20 21 21 20 18 15 11 9 7 6 6 6 6 6 7 7 8 9 9 10 10 11 11 11 11 10 10 10 10 9 9 10 10 10 11 11 12 11 10 9 8 10 13 17 18 19 18 18 18 17 16 15 14 13 12 11 10 10 10 11 12 13 13 13 13 13 12 12 12 12 13 13 13 13 13 13 14 15 16 18
17 18 19 20 21 21 21 20 18 16 13 10 7 5 5 4 4 4 4 4 5 5 6 6 6 6 7 8 10 11 12 11 9 8 8 10 10 11 12 12 12 12 12 12 11 11 12 14 15 16 17 18 17 16 15 14 14 14 15 15 15 14 14 14 14 14 14 14 14 13 12 12 11 11 11 11 12 12 12 13 12 13 13 14 15 16
20 21 21 22 21 20 19 17 14 11 8 6 5 4 4 4 4 4 4 4 5 6 7 7 7 7 8 8 9 11 12 12 11 10 11 12 13 14 14 13 12 12 11 12 12 12 12 14 15 15 16 17 17 16 14 13 13 14 15 16 17 17 17 17 16 15 15 14 14 13 12 11 11 12 12 12 12 12 12 12 12 13 13 14 15 16
22 22 22 21 19 17 15 12 9 7 4 4 4 5 5 5 6 7 7 7 7 8 9 9 10 10 11 11 12 13 14 14 14 14 14 15 15 15 14 14 13 12 12 12 12 12 12 14 15 16 16 16 16 16 15 14 14 15 16 17 18 18 18 17 16 15 14 14 14 13 13 13 13 13 13 13 13 13 13 13 13 13 14 15 15 16
22 21 20 18 16 14 11 9 7 5 4 5 5 6 6 7 7 8 9 9 9 10 10 11 11 12 13 14 15 16 16 17 16 16 16 16 16 16 16 16 15 14 13 13 13 14 14 14 15 16 15 15 14 14 15 16 16 17 17 18 18 18 18 17 15 14 13 14 15 15 15 15 15 15 14 14 14 14 14 14 14 15 15 16 16 17
20 18 16 15 13 11 9 7 6 6 6 6 7 7 8 8 8 9 9 10 11 11 12 13 13 14 14 15 16 17 17 18 17 17 17 17 17 17 17 18 17 17 15 14 14 14 14 14 13 13 14 15 15 15 16 17 17 17 18 18 18 17 17 15 14 13 13 14 16 16 16 16 16 15 15 15 15 16 16 17 17 17 17 17 17 17
17 15 14 12 11 10 9 8 8 8 8 8 9 9 9 9 9 10 10 11 12 13 14 15 16 16 17 17 17 17 18 18 18 18 17 17 17 17 17 17 17 17 16 15 15 15 14 14 13 13 13 15 16 17 17 17 17 17 18 18 18 16 14 13 13 13 14 16 17 17 17 16 16 15 16 16 17 18 18 19 19 18 18 18 19 19
14 13 12 11 11 11 10 10 11 11 11 10 9 9 9 9 10 11 11 12 13 14 15 16 16 16 16 16 15 16 16 16 17 17 16 16 15 15 15 16 16 16 16 15 15 15 15 15 15 15 16 15 16 17 18 17 17 17 17 17 16 15 14 14 14 15 16 16 16 16 16 16 16 16 17 17 18 19 19 20 20 19 19 19 20 21
13 13 12 12 12 12 11 12 12 12 11 9 8 8 8 9 10 11 11 12 13 14 14 14 13 12 11 11 11 12 12 13 13 13 13 12 12 12 12 13 14 15 15 14 14 15 15 15 15 16 16 16 17 18 18 18 17 16 15 15 16 17 17 16 16 15 15 14 14 14 15 16 16 17 18 19 19 19 19 20 20 20 20 20 20 21
13 13 13 13 12 12 12 13 13 12 10 8 7 8 8 9 10 10 11 12 13 13 12 12 11 12 12 12 11 11 11 11 10 10 10 10 10 11 11 12 13 13 14 14 15 15 15 15 15 16 16 16 16 17 18 18 17 16 15 16 17 19 19 17 15 13 13 13 14 15 16 17 18 19 19 20 20 20 20 20 21 21 21 20 20 20
13 13 13 13 13 13 13 13 12 11 9 8 8 8 8 9 9 10 11 12 12 13 12 12 12 13 15 15 14 13 11 10 9 9 9 10 10 11 11 12 12 12 13 14 15 15 15 15 15 16 16 16 16 17 18 19 18 18 16 16 16 16 15 16 16 15 15 15 16 17 17 18 19 20 20 21 21 21 21 21 21 21 20 20 20 20
14 14 14 14 14 14 14 13 12 11 9 9 8 9 9 9 9 10 11 12 12 12 12 12 12 13 14 13 13 12 11 10 9 9 9 10 10 11 11 12 12 12 12 14 15 15 15 15 15 16 16 16 16 17 18 19 19 19 18 17 16 16 17 18 18 19 18 18 18 19 19 19 20 20 21 22 22 22 21 21 21 20 20 20 20 20
16 16 16 15 15 14 13 12 11 10 10 9 9 10 9 9 10 10 11 12 12 12 12 12 12 12 11 11 11 12 12 11 11 11 10 10 10 10 10 11 11 11 12 13 14 15 15 15 15 16 16 16 16 17 18 18 19 19 19 18 17 17 19 20 20 19 20 20 20 20 20 20 20 21 22 22 21 21 20 20 20 21 21 20 20 21
16 15 15 14 13 12 11 10 10 10 10 10 10 10 10 10 10 10 10 11 11 12 11 11 10 10 10 11 11 12 12 13 13 12 12 11 11 10 10 10 10 10 11 12 13 14 16 17 17 17 16 16 17 18 18 18 19 19 20 19 18 18 19 20 20 20 20 21 21 21 21 20 20 20 20 21 21 20 20 20 20 20 20 21 21 21
14 14 13 12 11 11 10 9 9 9 10 10 10 10 10 10 10 10 11 11 11 11 11 10 10 10 10 11 12 12 13 13 13 13 13 13 12 11 10 9 9 10 11 12 13 14 15 16 17 17 17 17 17 18 18 18 18 19 19 19 19 18 19 20 20 20 20 21 21 21 21 20 20 20 20 21 21 21 21 20 20 20 20 20 20 21
13 12 11 11 11 10 10 10 10 10 10 11 11 11 11 10 10 10 10 10 10 10 10 10 10 10 11 12 12 12 12 12 13 13 13 14 13 13 12 11 11 11 11 12 13 15 16 16 17 18 18 19 18 18 19 19 19 18 18 18 18 18 19 20 20 20 20 20 21 21 20 20 20 20 21 22 23 23 23 22 21 21 20 20 20 20
11 11 11 11 11 11 11 11 11 11 11 11 11 11 11 10 10 9 10 10 10 10 11 11 11 11 11 12 12 12 12 12 13 13 14 14 14 13 13 13 13 13 13 13 14 15 16 17 18 19 19 20 21 21 21 20 20 19 18 18 18 18 19 20 20 20 20 21 21 21 21 21 21 22 22 22 23 24 24 24 23 22 21 20 20 20
11 11 11 12 12 12 12 12 12 11 11 11 11 11 11 11 10 10 10 10 10 10 11 11 12 12 12 12 13 13 13 13 13 14 14 14 14 13 13 13 13 13 14 14 14 14 15 16 17 18 18 19 21 22 22 22 21 20 19 19 18 19 19 20 21 21 21 21 22 22 22 23 22 22 21 21 22 24 25 25 24 22 21 19 19 20
11 12 12 13 13 13 13 13 12 12 11 11 11 11 11 11 10 10 10 10 10 11 11 12 12 12 12 13 13 13 13 13 13 14 15 14 14 14 13 13 13 13 12 12 11 11 11 11 12 14 16 16 17 19 21 22 21 20 19 19 20 19 19 21 22 22 22 23 23 23 23 23 22 21 19 19 20 22 23 24 24 23 21 19 19 20
Wind_Direction
325 325 327 329 331 322 301 296 286 263 238 222 221 229 235 237 237 239 243 249 255 259 263 264 261 255 250 248 251 257 264 269 271 268 264 259 256 257 263 272 280 288 292 296 297 296 294 292 289 287 285 284 282 280 278 276 274 273 269 269 269 269 269 270 272 274 275 276 277 279 279 280 281 281 281 280 279 278 279 280 281 280 281 281 281 282
331 328 326 328 326 313 294 295 289 272 248 232 229 235 242 247 249 252 256 261 267 271 274 274 270 265 261 261 264 268 270 270 268 263 258 255 256 261 269 278 287 294 297 296 294 292 291 290 288 287 287 286 284 282 280 279 277 275 272 269 268 268 268 270 272 274 275 276 277 279 280 281 282 282 283 282 282 282 281 280 280 280 280 280 280 280
338 334 330 327 320 307 293 295 297 293 278 254 242 243 250 256 262 268 273 278 282 285 286 285 282 278 275 275 275 273 269 264 259 254 252 253 257 264 275 285 293 295 294 293 291 291 292 292 289 288 287 286 285 283 281 279 277 275 274 271 269 269 269 270 270 271 272 274 276 277 279 280 281 281 282 282 282 282 280 278 277 277 276 277 277 276
339 336 331 325 318 309 304 305 308 310 306 293 270 257 256 262 269 275 280 285 288 290 291 290 289 286 284 280 276 269 258 247 241 243 250 258 266 275 285 291 291 289 287 288 289 290 292 292 290 289 287 285 283 281 279 277 275 273 272 271 269 268 268 267 268 269 272 275 276 277 280 281 281 282 284 282 282 282 280 278 277 275 273 274 275 275
338 336 330 325 317 314 320 323 323 322 318 313 299 281 269 269 273 278 282 285 286 287 287 287 287 284 280 274 267 254 236 228 233 250 266 276 282 288 291 287 284 283 284 286 289 292 294 293 292 290 287 285 283 280 278 275 273 272 270 269 269 268 268 268 269 272 274 276 277 279 281 282 282 284 285 284 284 283 283 283 281 278 277 277 277 278
336 335 334 331 326 327 335 339 339 339 338 337 333 322 303 291 287 286 286 284 282 280 279 278 276 272 265 255 240 223 211 215 230 251 265 270 280 287 288 283 279 282 288 291 293 296 298 297 295 292 288 286 282 279 276 274 274 273 270 269 268 267 268 269 271 273 275 277 278 279 280 281 282 283 284 284 284 283 283 282 282 280 280 279 279 279
330 336 345 348 349 352 356 3 8 13 16 16 15 12 6 353 333 311 295 287 282 279 276 270 262 252 234 216 203 197 200 209 224 239 250 253 258 264 264 266 270 278 287 292 295 297 298 296 294 291 287 284 281 277 274 273 273 272 270 268 267 268 269 270 273 275 277 278 279 280 281 281 282 282 282 283 282 282 281 281 280 279 279 278 278 278
7 2 16 18 19 22 28 38 43 45 45 37 30 27 24 20 11 353 325 309 301 292 283 271 247 224 206 201 202 208 217 226 238 246 250 250 249 248 249 253 260 270 280 288 293 295 293 291 288 284 281 278 275 273 271 270 269 269 267 266 266 267 268 270 273 275 277 278 279 281 281 281 281 281 281 281 280 279 279 279 278 278 278 278 278 278
117 91 66 55 46 44 50 54 57 57 57 53 46 40 33 31 28 26 18 0 346 330 316 294 264 246 237 240 242 244 245 247 250 252 253 252 251 252 253 257 264 272 281 287 290 291 288 285 281 278 275 273 271 270 268 266 265 264 263 264 264 265 267 270 272 274 276 278 279 280 280 280 279 279 278 278 277 276 276 276 276 276 277 277 278 278
110 99 89 79 67 59 58 60 62 61 60 59 58 50 36 12 348 326 311 303 303 305 301 296 285 274 263 257 255 255 255 255 254 253 252 254 256 259 263 268 274 280 285 289 290 289 286 281 277 274 272 271 270 269 266 264 262 260 260 260 262 264 267 269 272 274 276 277 278 278 278 278 277 276 276 275 275 274 274 274 275 275 275 276 277 278
100 90 82 76 68 61 57 57 54 53 49 45 34 16 356 332 317 308 300 298 298 297 294 288 284 280 274 266 260 258 259 260 258 255 255 257 260 265 270 275 279 284 288 292 293 291 286 281 277 273 271 269 268 266 263 262 260 260 260 261 263 266 269 271 273 275 276 277 277 276 276 275 274 274 274 274 274 274 274 274 275 275 276 276 277 278
88 78 68 61 57 53 49 45 44 37 27 12 1 351 341 337 332 325 320 320 321 320 309 293 281 277 277 273 268 266 265 262 259 257 258 261 264 269 273 277 280 284 289 294 296 295 289 282 276 272 269 268 266 265 265 264 264 265 266 267 269 271 273 275 276 276 276 275 274 273 273 272 272 273 273 274 274 275 276 277 277 277 277 277 278 278
75 69 65 61 56 50 43 40 36 30 24 16 9 3 355 0 357 349 342 342 340 332 320 308 296 287 278 275 272 270 266 261 260 260 262 266 269 273 276 280 283 288 294 299 301 299 292 282 274 269 268 267 267 268 269 269 270 271 272 273 274 275 276 276 276 275 273 272 271 271 270 271 272 273 274 275 276 277 279 279 279 279 278 278 278 278
63 62 62 62 58 54 50 47 45 43 38 35 31 28 26 23 15 7 0 358 345 330 318 308 304 298 286 278 273 269 265 262 262 264 267 270 274 278 282 286 290 295 299 303 304 302 295 284 274 269 267 267 268 270 271 273 274 275 275 276 276 276 276 275 273 270 269 269 269 269 270 271 273 274 276 276 277 277 277 278 278 278 278 277 277 277
55 56 58 60 59 57 56 55 54 53 50 48 45 39 33 30 23 17 14 8 348 330 321 313 309 300 286 276 271 269 267 266 267 269 271 273 278 284 289 293 296 299 302 304 304 301 294 282 273 269 267 266 266 268 270 271 273 274 274 275 274 273 272 270 268 266 265 266 267 268 270 272 274 275 276 277 278 277 277 277 276 276 276 276 276 276
55 57 63 64 62 60 59 57 56 56 53 50 47 41 33 30 21 12 7 354 338 330 327 323 315 303 287 277 272 272 273 274 275 276 278 280 283 288 293 297 299 300 302 303 303 299 290 278 269 266 263 262 262 263 263 265 266 268 269 270 270 269 268 266 265 264 264 265 267 268 270 272 273 275 276 277 277 277 277 277 276 276 276 276 276 276
56 58 62 65 63 58 52 47 44 42 37 34 29 21 14 7 359 350 343 335 331 330 328 324 315 305 295 286 284 284 283 285 287 288 289 290 290 292 296 299 300 301 303 303 302 298 288 275 266 260 258 256 255 254 255 257 260 264 266 267 267 266 265 265 264 264 263 264 265 267 269 270 272 274 275 276 276 276 276 276 276 276 275 275 275 275
50 49 52 57 53 42 26 19 14 9 6 6 2 356 350 344 340 337 332 329 327 326 322 315 306 297 292 289 291 293 291 292 295 297 298 297 296 296 299 301 301 302 303 304 303 299 288 277 268 262 258 255 252 251 251 253 257 260 264 264 264 264 263 263 263 263 263 264 265 266 267 269 271 272 273 273 274 275 275 275 275 274 274 274 273 273
35 28 31 34 23 6 354 350 349 348 347 347 345 344 340 336 333 330 327 325 322 319 313 307 300 293 288 286 290 295 298 299 301 303 302 300 300 301 303 304 304 303 304 306 306 303 293 283 277 271 267 262 258 255 253 254 254 256 259 259 259 259 260 260 261 262 263 263 264 266 268 270 270 271 271 271 272 272 273 273 273 273 273 273 273 273
3 352 352 353 351 345 340 336 334 334 336 334 331 329 329 327 326 324 321 322 322 320 318 310 302 296 294 295 299 303 306 307 308 307 303 300 300 302 305 307 306 305 306 308 309 307 300 292 286 281 275 270 266 263 260 259 257 256 256 256 256 256 256 257 257 259 260 262 264 265 268 269 270 270 270 270 270 271 272 273 273 274 274 273 273 272
334 327 324 323 330 339 341 338 335 333 331 328 327 327 327 328 328 327 327 327 325 323 320 313 307 304 303 303 304 307 310 312 312 309 304 301 300 303 308 311 311 309 307 308 309 308 303 297 291 286 282 278 275 273 270 267 262 258 255 255 254 254 254 254 255 256 258 260 262 265 267 268 268 268 269 269 270 271 273 274 275 275 275 275 274 273
323 321 321 321 328 341 347 346 342 336 330 331 334 336 335 333 330 328 327 324 321 318 314 310 307 306 304 304 305 307 309 311 311 309 305 301 300 304 311 314 313 310 308 308 310 310 305 299 294 290 287 286 285 282 277 271 264 259 255 253 253 253 253 254 254 256 258 261 263 264 265 266 266 267 268 269 271 273 275 276 276 276 276 275 275 274
312 319 332 337 340 343 347 345 339 333 329 333 333 331 327 323 320 318 315 313 309 307 304 304 303 302 301 301 303 305 307 307 307 306 303 297 299 305 311 314 312 309 307 310 313 312 307 302 298 296 295 293 290 284 277 270 263 258 255 253 253 253 254 254 255 257 260 262 263 263 263 264 264 266 268 271 274 276 277 278 278 278 277 276 276 275
292 297 317 328 334 338 341 340 334 327 324 322 321 317 312 309 307 304 301 301 299 298 298 298 298 297 298 300 302 303 304 304 304 302 298 292 294 301 307 310 309 308 307 312 315 314 310 306 304 303 301 297 289 281 272 265 261 258 255 255 254 254 255 256 258 260 261 262 261 261 262 263 265 268 270 274 276 278 279 279 279 278 278 277 277 276
284 284 305 320 328 332 332 332 327 322 322 320 316 311 306 302 299 297 295 294 293 293 293 293 293 293 295 299 300 301 301 302 301 297 291 289 292 297 302 305 306 306 308 313 315 314 311 310 310 310 306 297 284 272 263 259 258 258 258 258 258 259 259 260 261 261 259 259 258 259 262 265 268 271 273 275 278 280 281 280 280 280 279 279 279 278
37 335 318 317 314 308 307 309 309 312 316 316 314 311 305 300 295 292 289 287 287 287 287 285 285 286 290 293 296 298 300 301 299 293 287 287 292 296 299 303 305 307 309 312 314 314 314 315 316 316 311 294 274 261 253 247 245 247 250 249 249 250 251 254 254 252 253 255 258 261 264 268 271 274 276 277 280 281 282 282 282 281 282 281 281 280
321 295 292 291 289 290 291 293 295 299 304 308 310 309 304 297 293 289 285 283 283 282 280 278 279 283 286 288 290 293 297 297 294 289 285 285 287 292 296 302 306 310 313 314 315 316 318 319 321 321 312 283 256 245 237 226 218 216 219 221 225 229 234 239 243 246 250 255 260 265 268 271 274 276 278 279 281 283 283 283 283 283 283 283 282 280
287 289 290 292 294 295 296 298 299 302 305 309 311 309 300 292 286 281 279 279 280 278 275 272 274 278 283 285 289 292 295 292 287 284 285 283 282 285 294 304 312 317 319 319 319 320 322 323 323 318 294 251 231 226 225 228 231 231 228 228 229 232 236 240 245 250 255 260 265 269 273 275 277 278 279 280 282 284 283 284 284 284 284 283 281 279
294 297 299 300 301 302 303 303 304 307 310 313 315 313 302 290 280 276 276 278 278 275 272 271 271 273 278 284 291 294 294 288 283 282 283 281 279 286 300 311 317 321 325 324 324 324 325 325 321 306 266 230 222 223 228 249 259 256 247 243 242 243 246 251 255 260 264 268 271 273 275 277 278 278 280 281 283 283 284 284 285 285 284 282 280 279
299 301 303 303 303 304 304 304 305 307 310 313 315 313 305 294 284 278 278 277 275 272 270 270 270 271 275 284 292 296 294 290 287 286 289 288 288 296 307 313 316 321 327 330 330 327 322 321 317 298 258 248 256 263 265 276 280 275 266 260 256 256 257 260 264 266 269 270 272 273 274 276 276 277 279 280 282 282 283 283 284 284 283 282 280 280
304 304 304 304 303 303 303 303 305 307 310 313 314 311 305 296 287 281 279 275 272 270 269 268 268 268 269 276 282 289 288 298 303 306 309 304 298 299 307 310 313 318 326 332 333 328 320 318 317 309 301 301 300 299 298 298 297 293 286 277 270 266 265 265 266 267 268 269 271 272 274 276 276 277 277 278 279 280 281 282 283 282 281 281 281 280
305 305 304 303 303 303 303 303 305 308 310 312 312 308 300 290 282 278 275 272 270 269 269 269 269 267 265 263 259 260 271 286 296 302 307 303 298 299 304 308 310 313 318 320 317 309 301 303 302 303 304 305 305 305 307 309 311 312 309 303 295 287 280 276 274 274 275 276 277 278 279 279 279 278 277 276 276 276 276 277 279 279 279 279 280 280
302 302 302 302 302 303 304 305 307 309 311 311 308 300 290 281 277 274 272 271 270 269 270 271 272 270 266 262 260 261 267 275 286 296 301 300 298 300 303 305 306 307 308 307 301 290 280 283 292 298 302 303 304 306 309 313 316 318 320 318 315 311 305 299 294 292 291 290 289 287 286 285 283 281 278 276 274 273 273 273 273 274 275 277 279 281
302 302 303 304 305 306 307 309 310 312 311 307 297 283 272 270 273 278 278 276 276 277 279 281 282 281 277 273 269 267 268 270 275 281 285 289 293 297 299 300 301 301 303 301 297 291 284 284 289 296 300 301 302 302 305 308 311 314 316 316 315 313 312 310 307 304 301 298 296 294 292 291 289 286 283 280 278 277 275 273 272 272 274 275 278 281
303 305 306 308 309 311 312 313 314 313 307 294 273 258 254 258 268 279 285 285 283 281 280 281 282 285 286 286 282 279 275 273 271 269 270 277 285 290 293 293 294 296 298 296 295 294 291 289 290 294 299 301 301 300 301 303 306 309 310 311 311 311 312 312 311 308 306 303 300 298 298 297 296 294 292 290 288 286 284 281 279 278 277 276 276 277
305 307 308 310 312 314 316 317 316 311 290 266 253 251 252 259 266 272 278 282 282 278 277 276 277 278 280 283 284 284 283 282 280 278 276 278 282 286 287 286 287 288 290 290 290 290 291 292 292 293 295 297 298 299 300 302 305 307 308 309 309 310 311 312 312 311 309 306 304 303 303 303 302 300 299 299 298 296 293 288 284 282 279 277 275 274
306 308 309 311 314 316 318 317 312 298 271 252 250 254 257 263 267 269 273 278 279 277 277 277 277 278 279 280 282 284 285 286 286 284 282 281 281 281 280 279 280 280 279 280 283 286 289 291 293 293 292 290 292 296 300 304 306 307 307 307 309 310 311 314 315 314 311 308 305 305 305 304 303 303 303 304 304 302 298 294 289 286 283 280 278 276
306 307 309 311 313 314 314 309 302 289 272 262 258 260 262 265 267 269 272 275 277 278 279 279 279 279 280 281 282 283 284 285 285 284 282 280 278 276 275 275 276 275 273 272 275 279 283 286 289 291 291 290 289 292 297 302 306 306 306 307 308 309 311 314 315 313 309 305 303 303 302 302 303 304 304 304 303 300 297 295 293 291 289 288 285 281
305 306 307 309 309 309 306 300 295 290 284 278 273 268 266 267 269 271 274 276 279 280 282 281 281 281 281 281 281 281 281 281 281 281 280 278 276 274 273 274 275 275 273 272 271 272 273 275 278 283 288 291 293 294 297 299 302 304 307 309 309 308 308 309 308 305 302 301 300 299 300 302 303 303 302 300 298 296 295 294 295 295 296 296 293 289
303 303 304 305 305 304 301 297 295 295 293 287 280 275 274 277 279 280 281 281 282 282 283 284 284 284 283 282 280 280 280 280 281 281 280 279 277 275 273 273 275 276 276 274 272 269 268 268 271 275 280 285 290 294 296 297 298 302 306 308 307 306 305 304 302 300 299 299 299 299 300 301 300 298 296 295 294 293 294 296 297 298 298 297 295 293
302 302 303 303 303 301 297 298 300 302 299 292 285 283 286 287 288 289 289 289 288 288 290 293 295 293 289 286 285 285 286 286 287 286 285 284 282 279 276 275 275 276 277 276 274 270 267 266 269 272 276 280 285 288 291 292 295 298 301 300 300 300 301 301 299 298 299 299 298 298 298 297 295 294 294 294 294 295 297 298 298 298 297 295 292 290
300 301 301 302 301 299 298 303 307 310 306 299 291 289 290 291 293 296 298 299 301 305 309 314 315 313 309 305 302 301 302 301 300 297 294 291 288 284 279 277 277 277 278 277 274 271 268 267 268 271 274 278 283 286 288 290 292 294 294 294 297 300 301 300 299 299 299 298 297 295 294 293 292 293 295 296 298 299 299 298 297 295 294 293 291 289
297 297 298 298 298 298 300 303 306 308 307 302 295 291 291 293 296 300 304 305 308 311 314 317 318 317 315 314 314 315 317 316 311 304 298 294 290 286 282 280 279 278 277 276 273 271 270 269 268 269 272 276 279 282 285 288 290 291 290 291 294 298 299 298 299 300 299 296 294 293 293 293 294 296 298 298 298 298 298 297 295 293 291 290 289 288
294 294 294 294 295 296 296 297 298 300 301 298 295 293 293 295 297 300 303 304 306 310 313 317 318 316 313 311 313 316 318 316 312 307 302 298 294 290 287 284 281 279 276 275 272 271 272 271 269 269 272 273 275 277 280 284 287 288 289 289 289 287 286 289 294 296 296 294 293 293 294 296 297 299 299 298 297 296 296 295 294 293 291 290 288 287
290 291 291 292 293 294 294 293 293 293 293 292 291 291 292 294 297 299 301 303 306 309 313 316 316 313 308 307 309 312 313 313 311 310 307 306 304 301 297 293 289 285 280 276 274 273 271 270 271 273 275 273 272 272 274 279 282 285 286 286 285 283 281 284 288 290 291 292 292 293 296 298 299 299 297 296 295 295 293 293 292 291 290 289 287 286
289 291 293 295 296 296 293 292 290 289 287 287 288 290 291 294 296 298 300 302 304 307 310 312 309 304 299 302 306 309 309 310 310 311 311 312 311 310 307 302 296 291 285 282 279 277 275 272 273 275 276 275 274 272 272 274 277 280 282 284 284 284 284 284 284 285 287 289 291 294 297 300 299 296 294 294 294 294 292 290 288 288 288 288 287 285
292 293 296 298 298 298 295 293 289 286 285 287 288 289 290 293 296 298 300 301 302 304 305 305 301 297 294 297 300 302 303 304 305 307 311 313 314 313 310 305 299 294 289 287 285 283 281 280 279 277 275 273 274 274 273 272 272 273 277 280 282 282 282 283 283 284 285 286 289 292 297 298 296 294 292 293 294 293 293 291 288 287 286 286 285 284
291 292 293 294 294 293 290 289 286 285 285 286 287 289 290 292 294 296 297 296 296 296 296 296 295 293 292 292 293 294 295 296 298 301 304 306 309 310 309 307 303 299 295 293 291 289 288 286 284 279 273 268 267 270 273 272 271 270 272 275 277 278 278 279 281 283 285 285 287 290 292 291 289 289 291 293 294 294 293 291 290 288 286 285 283 282
286 286 286 286 285 284 283 283 283 284 284 285 287 288 290 289 288 287 287 286 287 288 289 290 289 288 287 288 289 290 290 291 292 295 298 300 303 305 305 305 304 303 300 297 294 292 290 287 283 278 272 265 262 263 268 269 270 270 270 271 271 272 274 277 279 282 283 284 286 288 288 287 286 287 288 289 290 291 292 291 291 289 287 285 283 280
279 278 277 277 277 278 279 280 281 283 283 284 285 286 287 287 285 283 282 282 283 284 284 283 282 281 282 283 285 287 288 289 290 291 293 295 298 299 299 300 300 300 298 296 293 291 289 286 283 279 272 266 261 259 261 264 267 269 269 268 267 268 270 273 277 280 282 283 285 286 287 286 286 285 283 283 284 287 289 290 290 288 287 285 283 281
276 273 272 271 273 274 275 276 278 279 279 280 281 282 283 285 285 284 283 282 281 281 280 279 277 276 278 280 282 284 284 284 285 286 289 292 295 296 295 296 295 294 292 291 291 290 289 288 287 285 280 269 260 257 258 260 263 266 267 267 267 267 268 271 275 279 281 283 284 286 286 286 284 282 279 277 279 284 287 288 288 287 287 286 285 282